Tracking 29892 objects as of 21-Nov-2024
HD Live streaming from Space Station
objects crossing your sky now

GONETS M 17

Track GONETS M 17 now!
10-day predictions


NORAD ID: 46486
Int'l Code: 2020-068A
Perigee: 1,483.8 km
Apogee: 1,519.3 km
Inclination: 82.5 °
Period: 115.9 minutes
Semi major axis: 7872 km
RCS: Unknown
Launch date: September 28, 2020
Source: Commonwealth of Independent States (former USSR) (CIS)
Launch site: PLESETSK MISSILE AND SPACE COMPLEX (PKMTR)
Your satellite tracking list
Your tracking list is empty




NASA's NSSDC Master Catalog

Two Line Element Set (TLE):
1 46486U 20068A   24326.14628952  .00000021  00000-0  79107-4 0  9999
2 46486  82.4983 343.9782 0022519 202.1729 157.8379 12.42881786188163
Source of the keplerian elements: AFSPC